• In Deutschland
  • Länderverzeichnis
  • Für 7 Tage
  • Wassertemperatur
  • Satellitenkarten
  • Wetterkarte
  • Widgets
  • user-avatar
    Anmelden

    Stündliche Wetter Lüneburg

    Heute, 21 Februar, Mittwoch

    Zeit Temperatur Niederschläge Wind Luftdruck Luftfeuchtigkeit
    00:00 -3°C° 0 mm 2 m/S 766 mmHg 84%
    01:00 -3°C° 0 mm 2 m/S 766 mmHg 84%
    02:00 -3°C° 0 mm 2 m/S 766 mmHg 84%
    03:00 -3°C° 0 mm 2 m/S 766 mmHg 84%
    04:00 -3°C° 0 mm 2 m/S 767 mmHg 84%
    05:00 -1°C° 0 mm 1 m/S 767 mmHg 83%
    06:00 -1°C° 0 mm 1 m/S 767 mmHg 83%
    07:00 -1°C° 0 mm 1 m/S 767 mmHg 83%
    08:00 0°C° 0 mm 1 m/S 767 mmHg 77%
    09:00 -1°C° 0 mm 2 m/S 767 mmHg 71%
    10:00 +1°C° 0 mm 2 m/S 767 mmHg 65%
    11:00 +2°C° 0 mm 2 m/S 767 mmHg 60%
    12:00 +3°C° 0 mm 2 m/S 767 mmHg 56%
    13:00 +4°C° 0 mm 2 m/S 767 mmHg 52%
    14:00 +4°C° 0 mm 2 m/S 767 mmHg 53%
    15:00 +3°C° 0 mm 2 m/S 767 mmHg 54%
    16:00 +3°C° 0 mm 2 m/S 767 mmHg 55%
    17:00 +2°C° 0 mm 2 m/S 767 mmHg 62%
    18:00 +1°C° 0 mm 2 m/S 767 mmHg 68%
    19:00 -2°C° 0 mm 2 m/S 767 mmHg 75%
    20:00 -2°C° 0 mm 2 m/S 767 mmHg 77%
    21:00 -2°C° 0 mm 2 m/S 767 mmHg 79%
    22:00 -3°C° 0 mm 2 m/S 768 mmHg 81%
    23:00 -3°C° 0 mm 2 m/S 768 mmHg 82%

    Morgen, 22 Februar, Donnerstag

    Zeit Temperatur Niederschläge Wind Luftdruck Luftfeuchtigkeit
    00:00 -1°C° 0 mm 1 m/S 768 mmHg 83%
    01:00 -1°C° 0 mm 1 m/S 768 mmHg 84%
    02:00 -1°C° 0 mm 1 m/S 768 mmHg 84%
    03:00 -1°C° 0 mm 1 m/S 767 mmHg 85%
    04:00 -1°C° 0 mm 1 m/S 767 mmHg 85%
    05:00 -1°C° 0 mm 1 m/S 767 mmHg 85%
    06:00 -1°C° 0 mm 1 m/S 767 mmHg 85%
    07:00 -1°C° 0 mm 1 m/S 767 mmHg 85%
    08:00 0°C° 0 mm 1 m/S 767 mmHg 80%
    09:00 -1°C° 0 mm 2 m/S 768 mmHg 76%
    10:00 +1°C° 0 mm 2 m/S 768 mmHg 71%
    11:00 +2°C° 0 mm 2 m/S 767 mmHg 68%
    12:00 +1°C° 0 mm 3 m/S 767 mmHg 65%
    13:00 +2°C° 0 mm 3 m/S 767 mmHg 62%
    14:00 +2°C° 0 mm 3 m/S 767 mmHg 60%
    15:00 +1°C° 0 mm 3 m/S 767 mmHg 59%
    16:00 0°C° 0 mm 4 m/S 766 mmHg 57%
    17:00 0°C° 0 mm 3 m/S 767 mmHg 63%
    18:00 -1°C° 0 mm 3 m/S 767 mmHg 68%
    19:00 -2°C° 0 mm 3 m/S 767 mmHg 73%
    20:00 -4°C° 0 mm 3 m/S 767 mmHg 75%
    21:00 -4°C° 0 mm 3 m/S 767 mmHg 77%
    22:00 -4°C° 0 mm 3 m/S 767 mmHg 80%
    23:00 -4°C° 0 mm 2 m/S 767 mmHg 80%

    übermorgen, 23 Februar, Freitag

    Zeit Temperatur Niederschläge Wind Luftdruck Luftfeuchtigkeit
    00:00 -4°C° 0 mm 2 m/S 767 mmHg 81%
    01:00 -4°C° 0 mm 2 m/S 767 mmHg 82%
    02:00 -4°C° 0 mm 2 m/S 767 mmHg 82%
    03:00 -4°C° 0 mm 2 m/S 767 mmHg 81%
    04:00 -4°C° 0 mm 2 m/S 767 mmHg 81%
    05:00 -4°C° 0 mm 2 m/S 767 mmHg 80%
    06:00 -4°C° 0 mm 2 m/S 768 mmHg 79%
    07:00 -4°C° 0 mm 2 m/S 768 mmHg 79%
    08:00 -4°C° 0 mm 2 m/S 768 mmHg 71%
    09:00 -4°C° 0 mm 3 m/S 768 mmHg 64%
    10:00 -2°C° 0 mm 3 m/S 769 mmHg 56%
    11:00 -1°C° 0 mm 3 m/S 768 mmHg 51%
    12:00 0°C° 0 mm 3 m/S 768 mmHg 45%
    13:00 +1°C° 0 mm 3 m/S 768 mmHg 40%
    14:00 +1°C° 0 mm 3 m/S 768 mmHg 40%
    15:00 +1°C° 0 mm 3 m/S 768 mmHg 41%
    16:00 +1°C° 0 mm 3 m/S 768 mmHg 42%
    17:00 0°C° 0 mm 3 m/S 768 mmHg 48%
    18:00 -1°C° 0 mm 3 m/S 768 mmHg 54%
    19:00 -4°C° 0 mm 3 m/S 769 mmHg 61%
    20:00 -4°C° 0 mm 3 m/S 769 mmHg 63%
    21:00 -4°C° 0 mm 3 m/S 769 mmHg 66%
    22:00 -4°C° 0 mm 3 m/S 769 mmHg 68%
    23:00 -4°C° 0 mm 3 m/S 769 mmHg 70%

    24 Februar, Samstag

    Zeit Temperatur Niederschläge Wind Luftdruck Luftfeuchtigkeit
    00:00 -4°C° 0 mm 3 m/S 769 mmHg 72%
    01:00 -4°C° 0 mm 3 m/S 770 mmHg 74%
    02:00 -4°C° 0 mm 3 m/S 770 mmHg 76%
    03:00 -4°C° 0 mm 3 m/S 770 mmHg 78%
    04:00 -4°C° 0 mm 3 m/S 770 mmHg 80%
    05:00 -4°C° 0 mm 3 m/S 770 mmHg 80%
    06:00 -4°C° 0 mm 4 m/S 770 mmHg 81%
    07:00 -4°C° 0 mm 4 m/S 770 mmHg 82%
    08:00 -3°C° 0 mm 4 m/S 770 mmHg 75%
    09:00 -2°C° 0 mm 5 m/S 771 mmHg 68%
    10:00 -2°C° 0 mm 6 m/S 771 mmHg 62%
    11:00 -2°C° 0 mm 6 m/S 771 mmHg 58%
    12:00 -2°C° 0 mm 6 m/S 771 mmHg 54%
    13:00 -1°C° 0 mm 6 m/S 771 mmHg 51%
    14:00 -1°C° 0 mm 6 m/S 771 mmHg 49%
    15:00 -2°C° 0 mm 6 m/S 771 mmHg 47%
    16:00 -2°C° 0 mm 6 m/S 770 mmHg 46%
    17:00 -3°C° 0 mm 6 m/S 771 mmHg 49%
    18:00 -4°C° 0 mm 6 m/S 771 mmHg 52%
    19:00 -5°C° 0 mm 5 m/S 772 mmHg 56%
    20:00 -6°C° 0 mm 5 m/S 772 mmHg 58%
    21:00 -6°C° 0 mm 5 m/S 772 mmHg 60%
    22:00 -6°C° 0 mm 5 m/S 773 mmHg 62%
    23:00 -7°C° 0 mm 5 m/S 773 mmHg 61%

    25 Februar, Sonntag

    Zeit Temperatur Niederschläge Wind Luftdruck Luftfeuchtigkeit
    00:00 -7°C° 0 mm 5 m/S 773 mmHg 60%
    01:00 -7°C° 0 mm 5 m/S 773 mmHg 60%
    02:00 -7°C° 0 mm 5 m/S 773 mmHg 58%
    03:00 -7°C° 0 mm 4 m/S 773 mmHg 56%
    04:00 -8°C° 0 mm 4 m/S 773 mmHg 54%
    05:00 -8°C° 0 mm 4 m/S 773 mmHg 53%
    06:00 -8°C° 0 mm 4 m/S 773 mmHg 52%
    07:00 -7°C° 0 mm 3 m/S 774 mmHg 51%
    08:00 -8°C° 0 mm 4 m/S 774 mmHg 49%
    09:00 -7°C° 0 mm 4 m/S 774 mmHg 47%
    10:00 -5°C° 0 mm 4 m/S 774 mmHg 45%
    11:00 -5°C° 0 mm 4 m/S 774 mmHg 42%
    12:00 -4°C° 0 mm 4 m/S 774 mmHg 40%
    13:00 -3°C° 0 mm 4 m/S 774 mmHg 38%
    14:00 -3°C° 0 mm 4 m/S 773 mmHg 38%
    15:00 -3°C° 0 mm 4 m/S 773 mmHg 38%
    16:00 -3°C° 0 mm 4 m/S 773 mmHg 38%
    17:00 -4°C° 0 mm 3 m/S 773 mmHg 41%
    18:00 -5°C° 0 mm 3 m/S 773 mmHg 45%
    19:00 -5°C° 0 mm 2 m/S 773 mmHg 49%
    20:00 -5°C° 0 mm 2 m/S 773 mmHg 51%
    21:00 -5°C° 0 mm 2 m/S 773 mmHg 53%
    22:00 -5°C° 0 mm 2 m/S 773 mmHg 55%
    23:00 -6°C° 0 mm 2 m/S 773 mmHg 57%

    26 Februar, Montag

    Zeit Temperatur Niederschläge Wind Luftdruck Luftfeuchtigkeit
    00:00 -6°C° 0 mm 2 m/S 773 mmHg 59%
    01:00 -6°C° 0 mm 2 m/S 773 mmHg 61%
    02:00 -6°C° 0 mm 2 m/S 773 mmHg 63%
    03:00 -6°C° 0 mm 2 m/S 773 mmHg 66%
    04:00 -6°C° 0 mm 1 m/S 773 mmHg 68%
    05:00 -7°C° 0 mm 2 m/S 772 mmHg 70%
    06:00 -7°C° 0 mm 2 m/S 772 mmHg 72%
    07:00 -7°C° 0 mm 2 m/S 772 mmHg 75%
    08:00 -6°C° 0 mm 2 m/S 772 mmHg 70%
    09:00 -6°C° 0 mm 3 m/S 772 mmHg 65%
    10:00 -5°C° 0 mm 4 m/S 772 mmHg 60%
    11:00 -4°C° 0,1 mm 4 m/S 771 mmHg 57%
    12:00 -4°C° 0,1 mm 4 m/S 771 mmHg 54%
    13:00 -4°C° 0,1 mm 4 m/S 771 mmHg 51%
    14:00 -4°C° 0,1 mm 4 m/S 770 mmHg 51%
    15:00 -4°C° 0,1 mm 4 m/S 770 mmHg 50%
    16:00 -4°C° 0,1 mm 4 m/S 770 mmHg 50%
    17:00 -5°C° 0 mm 4 m/S 770 mmHg 55%
    18:00 -5°C° 0 mm 4 m/S 769 mmHg 59%
    19:00 -6°C° 0 mm 3 m/S 769 mmHg 64%
    20:00 -7°C° 0 mm 3 m/S 769 mmHg 66%
    21:00 -7°C° 0 mm 3 m/S 769 mmHg 68%
    22:00 -6°C° 0 mm 2 m/S 769 mmHg 70%
    23:00 -6°C° 0 mm 2 m/S 769 mmHg 71%
    Mehr zeigen